Voltar ao catálogo

STARLINK-36083

AtivoComunicaçõesVLEO
NORAD 66857·PAYLOAD·🇺🇸 United States

Lançado Dec 2, 2025 de Cape Canaveral Space Force Station

Loading…

Próximas Passagens (próximas 24 horas)

TLE

AtualizadoSource: CelesTrak SupGP

Época: Sep 15, 2026, 04:11 UTC

1 66857C 25281K   26258.17479167  .00052069  00000+0  18858-2 0  2586
2 66857  43.0036 353.6500 0001588 263.4353  19.5215 15.27555177    19

Acompanhe STARLINK-36083 em tempo real com AllMySat

Download on the App Store